Weather in Orekhovo

Russia / Republic of Crimea     45°07′51″N   33°37′57″E
temp.,
°C
wind,
m/s
gust,
m/s
humid.,
%
clouds,
%
prec.,
mm/h
press.,
hPa
HPBL,
m
27 february, sat
sat2700:00+7sw712920 0.0 1023370
03:00+7sw712920 0.0 1021379
06:00+7sw612910 0.0 1020340
09:00+8sw712840 0.0 1019483
12:00+11sw710700 0.0 1018633
15:00+11wsw79710 0.0 1018663
18:00+10wsw348145 0.0 1017419
21:00+6n7108572 0.3 1018612
28 february, sun
sun2800:00+6n5880100 0.8 1019601
03:00+4nnw4879100 0.8 1020520
06:00+4nnw4782100 0.1 1020531
09:00+4nnw468498 0.2 1021571
12:00+5nnw457695 0.2 1022683
15:00+6nw566397 0.3 10221025
18:00+5nw5769100 0.3 1022913
21:00+3nw368499 0.3 1024422
1 march, mon
mon100:00+2nw2385100 0.1 102480
03:00+1wnw2286100 0.1 102447
06:00+1nw239693 0.1 1025191
09:00+2nw137096 0.1 1026609
12:00+3n2260100 0.1 1026916
15:00+5n2354100 0.1 10271205
18:00+5nne2357100 0.0 10271129
21:00+4nne3570100 0.1 1030344
2 march, tue
tue200:00+3n2475100 0.1 1030204
03:00+2nne3578100 0.1 1031253
06:000n238562 0.0 103047
09:00+2nnw127040 0.0 1031178
12:00+5w44550 0.0 10301146
15:00+6w565745 0.0 10291064
18:00+5w686986 0.0 1027922
21:00+4wsw498286 0.0 1027276
3 march, wed
wed300:00+5w368277 0.0 1027237
03:00+4nw239083 0.0 102769
06:00+2n23910 0.0 102628
09:00+4nw01830 0.0 102798
12:00+9w45620 0.0 1027747
15:00+11w46520 0.0 10271053
18:00+9w356210 0.0 1026284
21:00+5wsw23838 0.0 102754